EW4431 Weather Reports


Display with metric or nautical units.
time (UTC)temp
F
wind
direction
speed
MPH
gust
MPH
rain 1hr
in
rain 24hr
in
rain mn
in
humidity
%
barometer
mb
20210804154622 96 190 0.0 4.0 0.00 0.00 0.00 29 1010.7
20210804153018 95 190 2.0 6.0 0.00 0.00 0.00 28 1010.6
20210804151506 94 190 2.0 6.0 0.00 0.00 0.00 28 1010.7
20210804150200 93 190 0.0 6.0 0.00 0.00 0.00 31 1010.6
20210804144549 92 190 0.0 3.0 0.00 0.00 0.00 32 1010.4
20210804143031 91 190 1.0 3.0 0.00 0.00 0.00 32 1010.3
20210804141547 90 190 0.0 4.0 0.00 0.00 0.00 33 1010.2
20210804140021 89 190 0.0 3.0 0.00 0.00 0.00 34 1010.1
20210804134513 88 190 0.0 2.0 0.00 0.00 0.00 36 1009.9
20210804131659 0 0.0 0.0 0.00 0.00 0.00 1009.6
20210804130056 0 0.0 0.0 0.00 0.00 0.00 1009.6
20210804124557 0 0.0 0.0 0.00 0.00 0.00 1009.5
20210804123034 0 0.0 0.0 0.00 0.00 0.00 1009.2
20210804121526 0 0.0 0.0 0.00 0.00 0.00 1009.1
20210804120053 0 0.0 0.0 0.00 0.00 0.00 1009.0
20210804114512 87 190 1.0 4.0 0.00 0.00 0.00 35 1008.8
20210804113006 88 190 0.0 4.0 0.00 0.00 0.00 37 1008.6
20210804111501 88 190 0.0 5.0 0.00 0.00 0.00 37 1008.5
20210804110138 88 190 0.0 4.0 0.00 0.00 0.00 38 1008.4
20210804104741 89 190 2.0 6.0 0.00 0.00 0.00 37 1008.4
20210804103148 88 190 0.0 3.0 0.00 0.00 0.00 39 1008.3
20210804101632 88 190 0.0 4.0 0.00 0.00 0.00 40 1008.3
20210804100131 89 190 2.0 9.0 0.00 0.00 0.00 39 1008.3
20210804094602 88 190 1.0 5.0 0.00 0.00 0.00 40 1008.3
20210804093136 88 190 0.0 4.0 0.00 0.00 0.00 40 1008.3
20210804091725 86 190 0.0 2.0 0.00 0.00 0.00 45 1008.3
20210804090058 86 190 0.0 0.0 0.00 0.00 0.00 44 1008.3
20210804084557 88 190 0.0 0.0 0.00 0.00 0.00 41 1008.2
20210804083143 89 190 0.0 0.0 0.00 0.00 0.00 39 1008.2
20210804081544 90 190 0.0 0.0 0.00 0.00 0.00 38 1008.3
20210804080121 91 190 0.0 2.0 0.00 0.00 0.00 36 1008.3
20210804074604 90 190 0.0 3.0 0.00 0.00 0.00 37 1008.5
20210804073117 90 190 0.0 0.0 0.00 0.00 0.00 37 1008.4
20210804071632 91 190 0.0 2.0 0.00 0.00 0.00 36 1008.6
20210804070127 91 190 0.0 1.0 0.00 0.00 0.00 37 1008.4
20210804064558 91 190 0.0 0.0 0.00 0.00 0.00 37 1008.4
20210804063118 91 190 0.0 0.0 0.00 0.00 0.00 37 1008.3
20210804061546 92 190 0.0 0.0 0.00 0.00 0.00 36 1008.2
20210804060042 93 190 0.0 0.0 0.00 0.00 0.00 35 1008.1
20210804054600 93 190 0.0 0.0 0.00 0.00 0.00 36 1008.2
20210804053056 93 190 0.0 0.0 0.00 0.00 0.00 35 1008.1
20210804051603 93 190 0.0 0.0 0.00 0.00 0.00 36 1008.0
20210804050058 93 190 0.0 0.0 0.00 0.00 0.00 35 1007.8
20210804044554 95 190 0.0 0.0 0.00 0.00 0.00 32 1007.8
20210804043041 95 190 0.0 0.0 0.00 0.00 0.00 32 1007.8
20210804041556 96 190 0.0 0.0 0.00 0.00 0.00 31 1007.7
20210804040033 96 190 0.0 0.0 0.00 0.00 0.00 33 1007.4
20210804034524 97 190 0.0 0.0 0.00 0.00 0.00 30 1007.3
20210804033025 98 190 0.0 0.0 0.00 0.00 0.00 27 1007.1
20210804031527 98 190 0.0 0.0 0.00 0.00 0.00 27 1006.9
20210804030027 101 190 0.0 0.0 0.00 0.00 0.00 25 1006.8
20210804024517 103 190 0.0 4.0 0.00 0.00 0.00 23 1006.7
20210804023041 104 190 0.0 1.0 0.00 0.00 0.00 21 1006.7
20210804021531 106 190 0.0 1.0 0.00 0.00 0.00 20 1006.7
20210804020013 107 190 0.0 3.0 0.00 0.00 0.00 18 1006.8
20210804014517 108 190 1.0 5.0 0.00 0.00 0.00 18 1006.7
20210804013101 109 190 1.0 8.0 0.00 0.00 0.00 17 1006.7
20210804011511 110 190 1.0 4.0 0.00 0.00 0.00 17 1006.8
20210804010005 110 190 0.0 6.0 0.00 0.00 0.00 17 1006.9
20210804004723 111 190 0.0 4.0 0.00 0.00 0.00 17 1007.0
20210804003132 110 190 0.0 6.0 0.00 0.00 0.00 17 1007.2
20210804001753 111 190 3.0 5.0 0.00 0.00 0.00 17 1007.5
20210804000239 111 190 1.0 7.0 0.00 0.00 0.00 18 1007.6
20210803234644 111 190 1.0 4.0 0.00 0.00 0.00 18 1007.8
20210803233230 111 190 2.0 6.0 0.00 0.00 0.00 18 1008.0
20210803231720 110 190 2.0 6.0 0.00 0.00 0.00 18 1008.1
20210803230124 110 190 3.0 5.0 0.00 0.00 0.00 18 1008.5
20210803224714 111 190 0.0 4.0 0.00 0.00 0.00 18 1008.8
20210803223008 110 190 0.0 6.0 0.00 0.00 0.00 19 1009.0
20210803221522 110 190 1.0 4.0 0.00 0.00 0.00 18 1009.2
20210803220146 109 190 1.0 7.0 0.00 0.00 0.00 19 1009.5
20210803214706 109 190 2.0 7.0 0.00 0.00 0.00 20 1009.8
20210803213153 108 190 2.0 5.0 0.00 0.00 0.00 21 1010.0
20210803211718 107 190 2.0 6.0 0.00 0.00 0.00 22 1010.2
20210803210141 108 190 3.0 5.0 0.00 0.00 0.00 22 1010.5
20210803204716 108 190 3.0 7.0 0.00 0.00 0.00 23 1010.8
20210803203219 108 190 2.0 4.0 0.00 0.00 0.00 23 1011.0
20210803201610 107 190 1.0 3.0 0.00 0.00 0.00 25 1011.3
20210803200006 105 190 1.0 4.0 0.00 0.00 0.00 27 1011.7
20210803194512 105 190 1.0 4.0 0.00 0.00 0.00 26 1011.9
20210803193058 105 190 3.0 7.0 0.00 0.00 0.00 29 1012.1
20210803191537 104 190 2.0 6.0 0.00 0.00 0.00 29 1012.2
20210803190123 103 190 1.0 5.0 0.00 0.00 0.00 30 1012.4
20210803184610 102 190 1.0 6.0 0.00 0.00 0.00 30 1012.6
20210803183015 102 190 2.0 5.0 0.00 0.00 0.00 30 1012.7
20210803181601 102 190 2.0 6.0 0.00 0.00 0.00 32 1012.9
20210803180023 102 190 2.0 5.0 0.00 0.00 0.00 32 1013.0
20210803174512 101 190 1.0 6.0 0.00 0.00 0.00 32 1013.2
20210803173236 100 190 1.0 7.0 0.00 0.00 0.00 35 1013.2
20210803171717 99 190 1.0 6.0 0.00 0.00 0.00 34 1013.4
20210803170159 98 190 1.0 5.0 0.00 0.00 0.00 35 1013.3
20210803164626 98 190 2.0 5.0 0.00 0.00 0.00 36 1013.4
20210803163203 97 190 0.0 8.0 0.00 0.00 0.00 37 1013.5
20210803161601 96 190 2.0 8.0 0.00 0.00 0.00 38 1013.6
20210803160124 95 190 2.0 7.0 0.00 0.00 0.00 38 1013.7